When you browse on this site, cookies collect data to enhance your experience and personalize the content and advertising you see.
Visit our Privacy Policy to learn more. By continuing to use the site, you agree to this use of cookies and data.
  • In Czech Republic
  • List of Countries
  • For 7 days
  • Water Temperature
  • Satellite Maps
  • Weather Map
  • Weather Widgets
  • user-avatar
    Login

    Hourly Weather Newcastle

    Today, 24 February, Sunday

    Time Temperature Precipitation Wind Pressure Humidity
    00:00 +19°C° 0.2 mm 6 mps 766 mmHg 89%
    01:00 +18°C° 0.2 mm 7 mps 766 mmHg 88%
    02:00 +18°C° 0.1 mm 7 mps 766 mmHg 86%
    03:00 +19°C° 0.1 mm 6 mps 766 mmHg 84%
    04:00 +19°C° 0 mm 5 mps 766 mmHg 86%
    05:00 +19°C° 0.2 mm 5 mps 767 mmHg 83%
    06:00 +20°C° 0.2 mm 6 mps 767 mmHg 81%
    07:00 +20°C° 0.2 mm 6 mps 768 mmHg 79%
    08:00 +21°C° 0.2 mm 6 mps 768 mmHg 73%
    09:00 +22°C° 0.2 mm 6 mps 768 mmHg 68%
    10:00 +23°C° 0.2 mm 7 mps 769 mmHg 62%
    11:00 +23°C° 0.1 mm 6 mps 769 mmHg 61%
    12:00 +23°C° 0.1 mm 6 mps 769 mmHg 61%
    13:00 +23°C° 0.1 mm 6 mps 769 mmHg 60%
    14:00 +23°C° 0.1 mm 6 mps 769 mmHg 60%
    15:00 +23°C° 0.1 mm 6 mps 769 mmHg 61%
    16:00 +23°C° 0.1 mm 6 mps 769 mmHg 61%
    17:00 +22°C° 0.1 mm 6 mps 769 mmHg 66%
    18:00 +21°C° 0.1 mm 5 mps 769 mmHg 71%
    19:00 +19°C° 0.1 mm 5 mps 769 mmHg 76%
    20:00 +19°C° 0.1 mm 5 mps 769 mmHg 77%
    21:00 +19°C° 0.1 mm 4 mps 770 mmHg 78%
    22:00 +19°C° 0.1 mm 4 mps 770 mmHg 79%
    23:00 +19°C° 0.1 mm 4 mps 770 mmHg 80%

    Tomorrow, 25 February, Monday

    Time Temperature Precipitation Wind Pressure Humidity
    00:00 +19°C° 0.1 mm 4 mps 769 mmHg 82%
    01:00 +19°C° 0.1 mm 4 mps 769 mmHg 84%
    02:00 +18°C° 0.1 mm 4 mps 769 mmHg 85%
    03:00 +18°C° 0.1 mm 3 mps 769 mmHg 87%
    04:00 +18°C° 0.1 mm 3 mps 769 mmHg 88%
    05:00 +18°C° 0.1 mm 3 mps 769 mmHg 86%
    06:00 +19°C° 0.1 mm 3 mps 769 mmHg 84%
    07:00 +19°C° 0.1 mm 3 mps 769 mmHg 82%
    08:00 +20°C° 0.1 mm 3 mps 769 mmHg 79%
    09:00 +21°C° 0.1 mm 3 mps 769 mmHg 76%
    10:00 +21°C° 0.1 mm 3 mps 769 mmHg 73%
    11:00 +24°C° 0 mm 3 mps 769 mmHg 66%
    12:00 +25°C° 0 mm 3 mps 769 mmHg 58%
    13:00 +27°C° 0 mm 4 mps 768 mmHg 50%
    14:00 +26°C° 0 mm 4 mps 768 mmHg 51%
    15:00 +26°C° 0 mm 4 mps 768 mmHg 51%
    16:00 +26°C° 0 mm 4 mps 767 mmHg 52%
    17:00 +24°C° 0 mm 3 mps 767 mmHg 59%
    18:00 +21°C° 0 mm 3 mps 768 mmHg 66%
    19:00 +20°C° 0 mm 3 mps 768 mmHg 74%
    20:00 +19°C° 0 mm 2 mps 768 mmHg 77%
    21:00 +18°C° 0 mm 2 mps 768 mmHg 80%
    22:00 +19°C° 0 mm 1 mps 769 mmHg 83%
    23:00 +18°C° 0 mm 1 mps 768 mmHg 85%

    Day after tomorrow, 26 February, Tuesday

    Time Temperature Precipitation Wind Pressure Humidity
    00:00 +18°C° 0 mm 1 mps 768 mmHg 88%
    01:00 +18°C° 0 mm 1 mps 767 mmHg 90%
    02:00 +16°C° 0 mm 1 mps 767 mmHg 92%
    03:00 +16°C° 0 mm 1 mps 766 mmHg 93%
    04:00 +16°C° 0 mm 1 mps 766 mmHg 95%
    05:00 +18°C° 0 mm 1 mps 766 mmHg 91%
    06:00 +19°C° 0 mm 1 mps 767 mmHg 88%
    07:00 +20°C° 0 mm 1 mps 767 mmHg 84%
    08:00 +23°C° 0 mm 1 mps 767 mmHg 74%
    09:00 +25°C° 0 mm 1 mps 767 mmHg 63%
    10:00 +28°C° 0 mm 1 mps 766 mmHg 52%
    11:00 +28°C° 0 mm 1 mps 766 mmHg 50%
    12:00 +29°C° 0 mm 2 mps 765 mmHg 49%
    13:00 +29°C° 0 mm 3 mps 765 mmHg 47%
    14:00 +29°C° 0 mm 3 mps 764 mmHg 48%
    15:00 +29°C° 0 mm 4 mps 764 mmHg 49%
    16:00 +29°C° 0 mm 4 mps 763 mmHg 50%
    17:00 +27°C° 0 mm 4 mps 764 mmHg 56%
    18:00 +25°C° 0 mm 4 mps 764 mmHg 63%
    19:00 +22°C° 0 mm 4 mps 764 mmHg 69%
    20:00 +22°C° 0 mm 4 mps 765 mmHg 73%
    21:00 +21°C° 0 mm 4 mps 765 mmHg 77%
    22:00 +20°C° 0 mm 4 mps 766 mmHg 81%
    23:00 +20°C° 0 mm 3 mps 766 mmHg 83%

    27 February, Wednesday

    Time Temperature Precipitation Wind Pressure Humidity
    00:00 +19°C° 0 mm 3 mps 766 mmHg 86%
    01:00 +19°C° 0 mm 3 mps 765 mmHg 89%
    02:00 +19°C° 0 mm 2 mps 765 mmHg 90%
    03:00 +18°C° 0 mm 2 mps 765 mmHg 91%
    04:00 +18°C° 0 mm 2 mps 765 mmHg 92%
    05:00 +20°C° 0 mm 1 mps 766 mmHg 88%
    06:00 +21°C° 0 mm 1 mps 766 mmHg 85%
    07:00 +22°C° 0 mm 1 mps 767 mmHg 81%
    08:00 +23°C° 0.1 mm 1 mps 767 mmHg 75%
    09:00 +25°C° 0.1 mm 2 mps 767 mmHg 68%
    10:00 +26°C° 0.1 mm 3 mps 767 mmHg 61%
    11:00 +27°C° 0 mm 3 mps 767 mmHg 57%
    12:00 +28°C° 0 mm 4 mps 767 mmHg 52%
    13:00 +29°C° 0 mm 4 mps 766 mmHg 47%
    14:00 +28°C° 0 mm 4 mps 766 mmHg 48%
    15:00 +28°C° 0 mm 4 mps 766 mmHg 50%
    16:00 +27°C° 0 mm 5 mps 765 mmHg 51%
    17:00 +26°C° 0 mm 4 mps 766 mmHg 58%
    18:00 +23°C° 0 mm 4 mps 766 mmHg 65%
    19:00 +21°C° 0 mm 3 mps 767 mmHg 73%
    20:00 +21°C° 0 mm 3 mps 767 mmHg 76%
    21:00 +20°C° 0 mm 3 mps 767 mmHg 79%
    22:00 +19°C° 0 mm 3 mps 768 mmHg 82%
    23:00 +19°C° 0 mm 2 mps 768 mmHg 84%

    28 February, Thursday

    Time Temperature Precipitation Wind Pressure Humidity
    00:00 +19°C° 0 mm 2 mps 767 mmHg 87%
    01:00 +18°C° 0 mm 2 mps 767 mmHg 89%
    02:00 +19°C° 0 mm 1 mps 767 mmHg 91%
    03:00 +19°C° 0 mm 1 mps 767 mmHg 92%
    04:00 +18°C° 0 mm 1 mps 767 mmHg 94%
    05:00 +19°C° 0 mm 1 mps 767 mmHg 91%
    06:00 +20°C° 0 mm 1 mps 767 mmHg 88%
    07:00 +21°C° 0 mm 1 mps 768 mmHg 84%
    08:00 +23°C° 0 mm 1 mps 768 mmHg 74%
    09:00 +26°C° 0 mm 2 mps 768 mmHg 63%
    10:00 +28°C° 0 mm 2 mps 768 mmHg 53%
    11:00 +28°C° 0 mm 3 mps 767 mmHg 51%
    12:00 +29°C° 0 mm 4 mps 767 mmHg 49%
    13:00 +30°C° 0 mm 4 mps 766 mmHg 48%
    14:00 +29°C° 0 mm 4 mps 766 mmHg 50%
    15:00 +29°C° 0 mm 5 mps 766 mmHg 52%
    16:00 +28°C° 0 mm 5 mps 765 mmHg 54%
    17:00 +26°C° 0 mm 5 mps 766 mmHg 61%
    18:00 +23°C° 0 mm 4 mps 766 mmHg 69%
    19:00 +22°C° 0 mm 4 mps 767 mmHg 76%
    20:00 +21°C° 0 mm 4 mps 767 mmHg 79%
    21:00 +20°C° 0 mm 3 mps 767 mmHg 83%
    22:00 +20°C° 0 mm 3 mps 768 mmHg 86%
    23:00 +19°C° 0 mm 3 mps 768 mmHg 88%

    1 March, Friday

    Time Temperature Precipitation Wind Pressure Humidity
    00:00 +19°C° 0 mm 3 mps 767 mmHg 90%
    01:00 +19°C° 0 mm 2 mps 767 mmHg 93%
    02:00 +18°C° 0 mm 2 mps 767 mmHg 94%
    03:00 +19°C° 0 mm 1 mps 767 mmHg 95%
    04:00 +19°C° 0 mm 1 mps 767 mmHg 97%
    05:00 +20°C° 0 mm 1 mps 767 mmHg 93%
    06:00 +21°C° 0 mm 1 mps 768 mmHg 90%
    07:00 +19°C° 0 mm 0 mps 768 mmHg 87%
    08:00 +24°C° 0 mm 1 mps 768 mmHg 76%
    09:00 +26°C° 0 mm 1 mps 768 mmHg 65%
    10:00 +29°C° 0 mm 1 mps 768 mmHg 54%
    11:00 +29°C° 0 mm 2 mps 767 mmHg 52%
    12:00 +29°C° 0 mm 3 mps 767 mmHg 50%
    13:00 +30°C° 0 mm 4 mps 766 mmHg 48%
    14:00 +29°C° 0 mm 4 mps 766 mmHg 51%
    15:00 +28°C° 0 mm 4 mps 766 mmHg 54%
    16:00 +28°C° 0 mm 4 mps 765 mmHg 58%
    17:00 +26°C° 0 mm 4 mps 766 mmHg 63%
    18:00 +25°C° 0 mm 4 mps 766 mmHg 69%
    19:00 +23°C° 0 mm 4 mps 766 mmHg 75%
    20:00 +22°C° 0 mm 4 mps 767 mmHg 79%
    21:00 +22°C° 0 mm 4 mps 767 mmHg 83%
    22:00 +21°C° 0 mm 4 mps 767 mmHg 87%
    23:00 +21°C° 0 mm 3 mps 767 mmHg 90%
    Show more